User: anonymous   Login
Location: Holmes Observatory
(37.1039°N, 122.0513°W)
Time: 09:17:53
(UTC-07:00)
Language:

Cosmos 921 Rocket - Orbit

View from above orbital plane
View from above orbital plane
View from above satellite
View from above satellite

Ground track
Ground track

The orbit data is extracted from the following two-line orbital elements,

1 10096U 77055B   17262.93637648 +.00000072 +00000-0 +98220-5 0  9999
2 10096 075.8356 191.3238 0043090 324.4550 035.3771 14.88576203176147
Epoch (UTC): 19 September 2017 22:28:22
Eccentricity: 0.0043090
inclination: 75.8356°
perigee height: 572 km
apogee height: 632 km
right ascension of ascending node: 191.3238°
argument of perigee: 324.4550°
revolutions per day: 14.88576203
mean anomaly at epoch: 35.3771°
orbit number at epoch: 17614

The dashed part of the orbit path shows where the satellite is in the earth's shadow,  

DLR